N6CTG Weather Reports


Display with metric or nautical units.
time (UTC)temp
F
wind
direction
speed
MPH
gust
MPH
rain 1hr
in
rain 24hr
in
rain mn
in
humidity
%
barometer
mb
20260504011803 60 239 5.0 11.0 0.00 0.00 0.00 69 1011.1
20260504010902 61 238 5.0 9.0 0.00 0.00 0.00 68 1011.1
20260504010004 61 243 7.0 14.0 0.00 0.00 0.00 68 1010.7
20260504005402 62 238 7.0 12.0 0.00 0.00 0.00 67 1010.6
20260504004502 63 237 6.0 11.0 0.00 0.00 0.00 66 1010.6
20260504003603 64 240 5.0 11.0 0.00 0.00 0.00 64 1010.2
20260504002703 64 234 4.0 8.0 0.00 0.00 0.00 63 1010.2
20260504001802 64 237 3.0 8.0 0.00 0.00 0.00 65 1010.0
20260504000923 64 232 1.0 5.0 0.00 0.00 0.00 65 1010.0
20260504000023 64 237 4.0 6.0 0.00 0.00 0.00 65 1010.1
20260503235423 64 237 3.0 7.0 0.00 0.00 0.00 65 1010.2
20260503234502 64 234 1.0 4.0 0.00 0.00 0.00 67 1009.9
20260503233602 64 231 2.0 6.0 0.00 0.00 0.00 68 1010.0
20260503232702 64 230 2.0 6.0 0.00 0.00 0.00 68 1010.1
20260503231802 64 233 2.0 5.0 0.00 0.00 0.00 69 1010.2
20260503230902 64 228 2.0 5.0 0.00 0.00 0.00 68 1010.3
20260503230002 64 233 3.0 5.0 0.00 0.00 0.00 69 1010.4
20260503225402 64 236 4.0 7.0 0.00 0.00 0.00 69 1010.5
20260503224502 63 234 4.0 8.0 0.00 0.00 0.00 69 1010.5
20260503223603 63 249 3.0 7.0 0.00 0.00 0.00 70 1010.4
20260503222702 63 243 4.0 7.0 0.00 0.00 0.00 70 1010.6
20260503221802 63 252 3.0 7.0 0.00 0.00 0.00 71 1010.6
20260503220902 63 241 4.0 10.0 0.00 0.00 0.00 71 1010.6
20260503220002 63 245 4.0 8.0 0.00 0.00 0.00 70 1010.8
20260503215404 63 239 4.0 10.0 0.00 0.00 0.00 71 1010.8
20260503214524 63 247 3.0 7.0 0.00 0.00 0.00 71 1010.7
20260503213603 63 248 4.0 8.0 0.00 0.00 0.00 71 1010.7
20260503212702 64 240 3.0 7.0 0.00 0.00 0.00 71 1010.7
20260503211802 64 242 4.0 10.0 0.00 0.00 0.00 71 1010.8
20260503210902 64 244 4.0 8.0 0.00 0.00 0.00 72 1010.8
20260503210002 64 237 6.0 11.0 0.00 0.00 0.00 71 1010.9
20260503205403 64 241 5.0 9.0 0.00 0.00 0.00 70 1010.8
20260503204502 64 248 3.0 8.0 0.00 0.00 0.00 73 1010.8
20260503203602 63 253 3.0 6.0 0.00 0.00 0.00 75 1011.0
20260503202702 62 252 3.0 9.0 0.00 0.00 0.00 75 1011.1
20260503201802 62 254 4.0 9.0 0.00 0.00 0.00 76 1011.1
20260503200902 62 241 5.0 10.0 0.00 0.00 0.00 78 1011.1
20260503200002 62 234 5.0 10.0 0.00 0.00 0.00 77 1011.3
20260503195402 63 241 4.0 8.0 0.00 0.00 0.00 76 1011.3
20260503194502 63 246 1.0 5.0 0.00 0.00 0.00 77 1011.2
20260503193602 63 237 1.0 5.0 0.00 0.00 0.00 76 1011.3
20260503192702 63 242 2.0 6.0 0.00 0.00 0.00 77 1011.3
20260503191803 63 241 4.0 9.0 0.00 0.00 0.00 76 1011.3
20260503190902 64 235 2.0 6.0 0.00 0.00 0.00 72 1011.3
20260503190002 64 211 2.0 6.0 0.00 0.00 0.00 73 1011.2
20260503185402 64 230 3.0 7.0 0.00 0.00 0.00 75 1011.3
20260503184502 64 205 1.0 5.0 0.00 0.00 0.00 76 1011.4
20260503183602 62 230 1.0 6.0 0.00 0.00 0.00 81 1011.5
20260503182704 62 251 0.0 3.0 0.00 0.00 0.00 82 1011.5
20260503181802 61 153 0.0 3.0 0.00 0.00 0.00 84 1011.5
20260503180904 60 228 0.0 2.0 0.00 0.00 0.00 86 1011.6
20260503180002 60 241 1.0 4.0 0.00 0.00 0.00 87 1011.6
20260503175402 60 222 0.0 3.0 0.00 0.00 0.00 89 1011.7
20260503174502 59 167 0.0 2.0 0.00 0.00 0.00 91 1011.7
20260503173602 58 0 0.0 0.0 0.00 0.00 0.00 92 1011.8
20260503172702 58 141 0.0 2.0 0.00 0.00 0.00 93 1011.8
20260503171802 58 0 0.0 0.0 0.00 0.00 0.00 94 1011.9
20260503170902 57 0 0.0 0.0 0.00 0.00 0.00 94 1011.9
20260503150902 55 238 1.0 3.0 0.00 0.00 0.00 95 1012.1
20260503130902 55 0 0.0 0.0 0.00 0.00 0.00 93 1011.8
20260503080902 57 0 0.0 0.0 0.00 0.00 0.00 92 1012.5
20260503072702 57 233 0.0 3.0 0.00 0.00 0.00 92 1013.1
20260503071802 57 218 0.0 3.0 0.00 0.00 0.00 91 1012.9
20260503070902 57 129 0.0 1.0 0.00 0.00 0.00 91 1012.9
20260503054502 57 0 0.0 0.0 0.00 0.00 0.00 90 1012.7
20260503053602 57 227 0.0 2.0 0.00 0.00 0.00 90 1012.6
20260503052702 57 237 1.0 3.0 0.00 0.00 0.00 89 1012.4
20260503051802 58 246 0.0 2.0 0.00 0.00 0.00 89 1012.2
20260503050902 58 242 0.0 1.0 0.00 0.00 0.00 88 1011.9
20260503045404 59 244 0.0 4.0 0.00 0.00 0.00 87 1011.8
20260503044502 59 242 1.0 3.0 0.00 0.00 0.00 86 1011.5
20260503043603 60 243 0.0 1.0 0.00 0.00 0.00 86 1011.3
20260503042702 60 0 0.0 0.0 0.00 0.00 0.00 86 1011.1
20260503041804 60 0 0.0 0.0 0.00 0.00 0.00 85 1011.0
20260503040923 60 0 0.0 0.0 0.00 0.00 0.00 85 1010.9
20260503040023 61 0 0.0 0.0 0.00 0.00 0.00 84 1010.8
20260503035402 61 0 0.0 0.0 0.00 0.00 0.00 84 1010.7
20260503034502 61 0 0.0 0.0 0.00 0.00 0.00 83 1010.7
20260503033602 62 0 0.0 0.0 0.00 0.00 0.00 82 1010.7
20260503032703 62 0 0.0 0.0 0.00 0.00 0.00 81 1010.6
20260503031802 63 246 1.0 3.0 0.00 0.00 0.00 80 1010.4
20260503030902 64 235 1.0 3.0 0.00 0.00 0.00 79 1010.5
20260503030003 65 239 1.0 2.0 0.00 0.00 0.00 77 1010.3
20260503025402 65 233 0.0 2.0 0.00 0.00 0.00 76 1010.4
20260503024523 66 257 0.0 1.0 0.00 0.00 0.00 76 1010.4
20260503023602 66 0 0.0 0.0 0.00 0.00 0.00 74 1010.2
20260503022702 67 0 0.0 0.0 0.00 0.00 0.00 74 1010.2
20260503021802 67 0 0.0 0.0 0.00 0.00 0.00 73 1010.1
20260503020902 68 269 0.0 1.0 0.00 0.00 0.00 72 1010.1
20260503020002 68 0 0.0 0.0 0.00 0.00 0.00 71 1010.2
20260503015404 69 0 0.0 0.0 0.00 0.00 0.00 71 1010.1
20260503014502 69 238 1.0 4.0 0.00 0.00 0.00 70 1010.2
20260503013602 70 259 1.0 4.0 0.00 0.00 0.00 68 1010.0
20260503012702 70 247 2.0 6.0 0.00 0.00 0.00 68 1009.9